#timestamp,LO_Frequency,Hit,StdDev 
1564329615.1,286046999.8,N
1564329635.9,286046999.7,N
1564329655.7,286047000.2,N
1564329675.5,286046998.2,Y
1564329695.4,286046998.5,P
1564329715.2,286046998.2,N
1564329735.0,286046998.4,N
1564329736.0,286046998.4,N
1564329755.8,286046998.5,N
1564329775.6,286047001.1,N
1564329795.5,286047001.2,N
1564329815.3,286047000.5,N
1564329835.1,286046998.6,N
1564329855.9,286046998.5,N
1564329875.7,286047001.1,N
1564329895.6,286047001.1,N
1564329915.4,286047000.9,N
1564329935.2,286047001.2,N
1564329955.1,286046998.9,N
1564329956.0,286046998.9,N
1564329975.8,286046999.2,N
1564329995.6,286046998.6,N
1564330015.5,286046998.9,N
1564330035.3,286046998.7,N
1564330055.2,286046998.1,N
1564330075.9,286046998.8,N
1564330095.7,286046998.7,N
1564330115.6,286046998.9,N
1564330135.4,286046998.3,N
1564330155.2,286047001.2,N
1564330175.1,286046999.0,N
1564330176.0,286046999.0,N
1564330195.8,286046998.8,N
1564330215.7,286046999.0,N
1564330235.5,286046999.6,N
1564330255.3,286046999.4,N
1564330275.2,286046998.9,N
1564330295.0,286046998.2,N
1564330295.9,286046998.2,N
1564330315.7,286046998.6,N
1564330335.6,286046999.1,N
1564330355.4,286046999.4,N
1564330375.3,286046999.1,N
1564330395.1,286046998.9,N
1564330396.0,286046998.9,N
1564330415.8,286046998.3,N
1564330465.7,286046999.2,E
1564330475.6,286046998.7,N
1564330495.5,286047001.2,P
1564330515.3,286046998.6,N
1564330535.1,286046998.3,N
1564330555.9,286046998.5,N
1564330575.7,286047000.7,N
1564330595.5,286046998.2,N
1564330615.4,286046998.7,N
1564330635.2,286046998.2,N
1564330655.1,286046998.7,N
1564330656.0,286046998.7,N
1564330675.8,286046998.7,N
1564330695.6,286047001.2,N
1564330715.5,286046998.4,N
1564330735.3,286046998.8,N
1564330755.1,286046998.5,N
1564330775.9,286046998.2,N
1564330795.7,286046998.7,N
1564330815.6,286047001.0,N
1564330835.4,286047000.8,N
1564330855.2,286047001.0,N
1564330875.1,286047000.9,N
1564330876.0,286047000.9,N
1564330895.8,286046998.1,N
1564330915.6,286047000.9,N
1564330935.5,286047000.3,N
1564330955.3,286047000.6,N
1564330975.2,286047001.1,N
1564330995.9,286047002.7,N
1564331015.7,286047000.2,N
1564331035.6,286047000.6,N
1564331055.4,286047000.0,N
1564331075.2,286047002.0,N
1564331095.1,286047000.2,N
1564331096.0,286047000.2,N
1564331115.8,286047002.4,N
1564331135.7,286046999.7,N
1564331155.5,286047001.9,N
1564331175.3,286047002.3,N
1564331195.2,286047002.2,N
1564331215.0,286047001.9,N
1564331215.9,286047001.9,N
1564331235.8,286046999.7,N
1564331255.6,286047000.1,N
1564331275.4,286046999.8,N
1564331295.3,286047000.0,N
1564331315.1,286047000.2,N
1564331335.8,286047002.7,N
1564331355.7,286047002.8,N
1564331375.5,286047002.7,N
1564331395.3,286046999.7,N
1564331415.2,286047000.0,N
1564331435.0,286047002.7,N
1564331435.9,286047002.7,N
1564331455.8,286047002.4,N
1564331475.6,286047002.4,N
1564331495.4,286047002.6,N
1564331515.3,286047002.8,N
1564331535.1,286047002.6,N
1564331555.9,286047002.7,N
1564331575.7,286047002.6,N
1564331595.5,286047002.6,N
1564331615.4,286047002.8,N
1564331635.2,286047002.5,N
1564331655.0,286047002.7,N
1564331655.9,286047002.7,N
1564331675.8,286047002.3,N
1564331695.6,286047002.6,N
1564331715.5,286047002.0,N
1564331735.3,286047001.9,N
1564331755.1,286047002.2,N
1564331775.9,286047002.5,N
1564331795.7,286047004.0,Y
1564331815.5,286047000.6,P
1564331835.4,286047000.7,N
1564331855.2,286047000.4,N
1564331875.1,286047000.3,N
1564331876.0,286047000.3,N
1564331895.8,286047000.3,N
1564331915.6,286047000.6,N
1564331935.5,286047000.2,N
1564331955.3,286047000.5,N
1564331975.1,286047000.6,N
1564331995.9,286047000.0,N
1564332015.7,286047000.1,N
1564332035.6,286046999.8,N
1564332055.4,286046999.8,N
1564332075.2,286046999.9,N
1564332095.1,286047000.1,N
1564332096.0,286047000.1,N
1564332115.8,286047002.6,Y
1564332135.6,286047000.8,P
1564332155.5,286047000.8,P
1564332175.3,286047000.7,P
1564332195.2,286047001.1,Y
1564332215.9,286047000.7,P
1564332235.7,286046998.5,P
1564332255.6,286047001.2,N
1564332275.4,286047001.2,N
1564332295.2,286047001.1,N
1564332315.1,286047001.0,N
1564332316.0,286047001.0,N
1564332335.8,286046998.5,N
1564332355.7,286047001.1,N
1564332375.5,286047000.8,N
1564332395.3,286047001.0,N
1564332415.2,286047000.9,N
1564332435.0,286047000.0,N
1564332435.9,286047000.0,N
1564332455.8,286047000.2,N
1564332475.6,286047000.6,N
1564332495.4,286047000.8,N
1564332515.3,286046999.7,N
1564332535.1,286047000.0,N
1564332555.8,286047002.7,Y
1564332575.7,286047000.2,P
1564332595.5,286047000.4,N
1564332615.4,286047000.9,P
1564332635.2,286047000.1,N
1564332655.0,286047000.2,N
1564332655.9,286047000.2,N
1564332675.8,286047000.6,N
1564332695.6,286046999.9,N
1564332715.4,286046999.8,N
1564332735.3,286047001.1,Y
1564332755.1,286046998.5,P
1564332775.9,286047001.2,N
1564332795.7,286046998.3,N
1564332815.5,286046998.3,N
1564332835.4,286046998.2,N
1564332855.2,286046998.8,N
1564332875.0,286046998.6,N
1564332875.9,286046998.6,N
1564332895.8,286046998.1,N
1564332915.6,286046998.3,N
1564332935.5,286046998.8,N
1564332955.3,286046998.6,N
1564332975.1,286047001.1,N
1564332995.9,286046998.4,N
1564333015.7,286046998.1,N
1564333035.5,286046998.9,N
1564333055.4,286046998.8,N
1564333075.2,286046999.5,N
1564333095.1,286046999.0,N
1564333096.0,286046999.0,N
1564333115.8,286046999.3,N
1564333135.6,286046998.9,N
1564333155.5,286046996.9,Y
1564333175.3,286046998.2,P
1564333195.1,286047001.1,N
